When you browse on this site, cookies collect data to enhance your experience and personalize the content and advertising you see.
Visit our Privacy Policy to learn more. By continuing to use the site, you agree to this use of cookies and data.
  • In Czech Republic
  • List of Countries
  • For 7 days
  • Water Temperature
  • Satellite Maps
  • Weather Map
  • Weather Widgets
  • user-avatar
    Login

    Hourly Weather Tokarnia

    Today, 19 December, Wednesday

    Time Temperature Precipitation Wind Pressure Humidity
    00:00 -4°C° 0 mm 1 mps 728 mmHg 94%
    01:00 -6°C° 0 mm 1 mps 728 mmHg 94%
    02:00 -6°C° 0 mm 1 mps 727 mmHg 93%
    03:00 -6°C° 0 mm 1 mps 727 mmHg 93%
    04:00 -6°C° 0 mm 1 mps 727 mmHg 93%
    05:00 -6°C° 0 mm 1 mps 727 mmHg 92%
    06:00 -7°C° 0 mm 1 mps 727 mmHg 91%
    07:00 -7°C° 0 mm 1 mps 727 mmHg 91%
    08:00 -6°C° 0 mm 1 mps 727 mmHg 87%
    09:00 -6°C° 0 mm 2 mps 727 mmHg 83%
    10:00 -5°C° 0 mm 2 mps 727 mmHg 80%
    11:00 -4°C° 0 mm 2 mps 727 mmHg 79%
    12:00 -4°C° 0 mm 2 mps 727 mmHg 78%
    13:00 -3°C° 0 mm 2 mps 726 mmHg 77%
    14:00 -4°C° 0 mm 2 mps 726 mmHg 81%
    15:00 -5°C° 0 mm 2 mps 726 mmHg 85%
    16:00 -6°C° 0 mm 2 mps 726 mmHg 90%
    17:00 -6°C° 0 mm 2 mps 725 mmHg 90%
    18:00 -7°C° 0 mm 2 mps 725 mmHg 89%
    19:00 -8°C° 0 mm 3 mps 725 mmHg 89%
    20:00 -8°C° 0 mm 3 mps 725 mmHg 88%
    21:00 -8°C° 0 mm 3 mps 725 mmHg 87%
    22:00 -8°C° 0 mm 3 mps 725 mmHg 86%
    23:00 -8°C° 0 mm 3 mps 724 mmHg 85%

    Tomorrow, 20 December, Thursday

    Time Temperature Precipitation Wind Pressure Humidity
    00:00 -8°C° 0 mm 3 mps 724 mmHg 85%
    01:00 -8°C° 0 mm 3 mps 724 mmHg 84%
    02:00 -8°C° 0 mm 3 mps 724 mmHg 83%
    03:00 -8°C° 0 mm 3 mps 724 mmHg 83%
    04:00 -7°C° 0 mm 3 mps 723 mmHg 83%
    05:00 -7°C° 0 mm 3 mps 723 mmHg 83%
    06:00 -7°C° 0 mm 3 mps 723 mmHg 83%
    07:00 -7°C° 0 mm 3 mps 723 mmHg 82%
    08:00 -6°C° 0 mm 3 mps 723 mmHg 80%
    09:00 -5°C° 0 mm 3 mps 724 mmHg 78%
    10:00 -4°C° 0 mm 4 mps 724 mmHg 76%
    11:00 -4°C° 0 mm 4 mps 723 mmHg 76%
    12:00 -4°C° 0 mm 4 mps 723 mmHg 76%
    13:00 -3°C° 0 mm 4 mps 723 mmHg 77%
    14:00 -4°C° 0.2 mm 4 mps 723 mmHg 80%
    15:00 -4°C° 0.2 mm 4 mps 723 mmHg 84%
    16:00 -5°C° 0.2 mm 4 mps 723 mmHg 88%
    17:00 -5°C° 0.2 mm 4 mps 723 mmHg 88%
    18:00 -5°C° 0.2 mm 4 mps 723 mmHg 89%
    19:00 -4°C° 0.2 mm 4 mps 723 mmHg 90%
    20:00 -4°C° 0.1 mm 4 mps 723 mmHg 90%
    21:00 -4°C° 0.1 mm 4 mps 723 mmHg 90%
    22:00 -4°C° 0.1 mm 4 mps 723 mmHg 90%
    23:00 -4°C° 0.1 mm 4 mps 723 mmHg 90%

    Day after tomorrow, 21 December, Friday

    Time Temperature Precipitation Wind Pressure Humidity
    00:00 -4°C° 0.1 mm 4 mps 723 mmHg 90%
    01:00 -4°C° 0.1 mm 4 mps 724 mmHg 90%
    02:00 -4°C° 0.1 mm 4 mps 723 mmHg 91%
    03:00 -4°C° 0.1 mm 4 mps 723 mmHg 91%
    04:00 -4°C° 0.1 mm 3 mps 723 mmHg 91%
    05:00 -4°C° 0 mm 4 mps 723 mmHg 91%
    06:00 -4°C° 0 mm 4 mps 723 mmHg 90%
    07:00 -4°C° 0 mm 4 mps 723 mmHg 90%
    08:00 -4°C° 0 mm 4 mps 723 mmHg 89%
    09:00 -3°C° 0 mm 4 mps 723 mmHg 88%
    10:00 -3°C° 0 mm 4 mps 723 mmHg 87%
    11:00 -3°C° 0 mm 4 mps 723 mmHg 87%
    12:00 -4°C° 0 mm 5 mps 722 mmHg 87%
    13:00 -2°C° 0 mm 5 mps 722 mmHg 87%
    14:00 -4°C° 0.1 mm 5 mps 722 mmHg 88%
    15:00 -4°C° 0.1 mm 5 mps 721 mmHg 88%
    16:00 -4°C° 0.1 mm 5 mps 721 mmHg 89%
    17:00 -4°C° 0.2 mm 5 mps 721 mmHg 89%
    18:00 -4°C° 0.2 mm 5 mps 720 mmHg 89%
    19:00 -4°C° 0.2 mm 6 mps 720 mmHg 89%
    20:00 -4°C° 0.4 mm 6 mps 719 mmHg 88%
    21:00 -4°C° 0.4 mm 6 mps 718 mmHg 88%
    22:00 -4°C° 0.4 mm 7 mps 718 mmHg 88%
    23:00 -4°C° 0.7 mm 6 mps 717 mmHg 88%

    22 December, Saturday

    Time Temperature Precipitation Wind Pressure Humidity
    00:00 -4°C° 0.7 mm 6 mps 717 mmHg 88%
    01:00 -4°C° 0.7 mm 6 mps 716 mmHg 89%
    02:00 -3°C° 0.2 mm 6 mps 716 mmHg 89%
    03:00 -2°C° 0.2 mm 5 mps 716 mmHg 90%
    04:00 -2°C° 0.2 mm 5 mps 716 mmHg 91%
    05:00 -2°C° 0.3 mm 5 mps 716 mmHg 91%
    06:00 -1°C° 0.3 mm 4 mps 716 mmHg 92%
    07:00 -1°C° 0.3 mm 4 mps 716 mmHg 93%
    08:00 -1°C° 0.1 mm 4 mps 716 mmHg 93%
    09:00 -1°C° 0.1 mm 4 mps 717 mmHg 93%
    10:00 0°C° 0.1 mm 4 mps 717 mmHg 93%
    11:00 0°C° 0 mm 4 mps 717 mmHg 93%
    12:00 0°C° 0 mm 4 mps 716 mmHg 93%
    13:00 0°C° 0 mm 4 mps 716 mmHg 93%
    14:00 0°C° 0 mm 4 mps 716 mmHg 93%
    15:00 0°C° 0 mm 4 mps 716 mmHg 93%
    16:00 0°C° 0 mm 4 mps 715 mmHg 93%
    17:00 0°C° 0.7 mm 4 mps 715 mmHg 93%
    18:00 0°C° 0.7 mm 4 mps 714 mmHg 93%
    19:00 0°C° 0.7 mm 5 mps 714 mmHg 93%
    20:00 0°C° 0.5 mm 5 mps 714 mmHg 92%
    21:00 0°C° 0.5 mm 5 mps 714 mmHg 92%
    22:00 +1°C° 0.5 mm 4 mps 714 mmHg 91%
    23:00 0°C° 0.1 mm 4 mps 714 mmHg 91%

    23 December, Sunday

    Time Temperature Precipitation Wind Pressure Humidity
    00:00 0°C° 0.1 mm 4 mps 715 mmHg 91%
    01:00 0°C° 0.1 mm 4 mps 715 mmHg 91%
    02:00 0°C° 0.1 mm 4 mps 715 mmHg 91%
    03:00 0°C° 0.1 mm 4 mps 716 mmHg 91%
    04:00 0°C° 0.1 mm 4 mps 716 mmHg 90%
    05:00 0°C° 0 mm 4 mps 716 mmHg 90%
    06:00 -1°C° 0 mm 4 mps 716 mmHg 90%
    07:00 -1°C° 0 mm 4 mps 717 mmHg 90%
    08:00 0°C° 0.1 mm 4 mps 717 mmHg 89%
    09:00 0°C° 0.1 mm 4 mps 717 mmHg 89%
    10:00 0°C° 0.1 mm 4 mps 718 mmHg 88%
    11:00 +1°C° 0.1 mm 4 mps 718 mmHg 88%
    12:00 +1°C° 0.1 mm 4 mps 718 mmHg 88%
    13:00 +1°C° 0.1 mm 4 mps 718 mmHg 88%
    14:00 +1°C° 0.2 mm 4 mps 718 mmHg 88%
    15:00 0°C° 0.2 mm 4 mps 718 mmHg 89%
    16:00 0°C° 0.2 mm 4 mps 718 mmHg 89%
    17:00 0°C° 0.1 mm 4 mps 719 mmHg 89%
    18:00 0°C° 0.1 mm 4 mps 719 mmHg 89%
    19:00 0°C° 0.1 mm 4 mps 719 mmHg 90%
    20:00 0°C° 0 mm 4 mps 719 mmHg 89%
    21:00 -1°C° 0 mm 4 mps 719 mmHg 89%
    22:00 -1°C° 0 mm 4 mps 719 mmHg 89%
    23:00 -1°C° 0 mm 4 mps 719 mmHg 89%

    24 December, Monday

    Time Temperature Precipitation Wind Pressure Humidity
    00:00 0°C° 0 mm 3 mps 719 mmHg 89%
    01:00 -1°C° 0 mm 3 mps 719 mmHg 89%
    02:00 -1°C° 0 mm 3 mps 719 mmHg 89%
    03:00 -1°C° 0 mm 3 mps 719 mmHg 89%
    04:00 -2°C° 0 mm 4 mps 719 mmHg 89%
    05:00 -2°C° 0.1 mm 4 mps 719 mmHg 89%
    06:00 -1°C° 0.1 mm 4 mps 719 mmHg 89%
    07:00 -1°C° 0.1 mm 4 mps 719 mmHg 89%
    08:00 -1°C° 0.1 mm 4 mps 719 mmHg 89%
    09:00 -1°C° 0.1 mm 4 mps 720 mmHg 88%
    10:00 -1°C° 0.1 mm 4 mps 720 mmHg 88%
    11:00 -1°C° 0.1 mm 4 mps 720 mmHg 87%
    12:00 0°C° 0.1 mm 3 mps 720 mmHg 86%
    13:00 +1°C° 0.1 mm 3 mps 721 mmHg 86%
    14:00 +1°C° 0 mm 2 mps 721 mmHg 87%
    15:00 +1°C° 0 mm 2 mps 721 mmHg 89%
    16:00 +1°C° 0 mm 1 mps 721 mmHg 90%
    17:00 +1°C° 0.1 mm 1 mps 721 mmHg 91%
    18:00 -1°C° 0.1 mm 2 mps 721 mmHg 92%
    19:00 -1°C° 0.1 mm 2 mps 722 mmHg 93%
    20:00 -1°C° 0 mm 2 mps 722 mmHg 93%
    21:00 -2°C° 0 mm 2 mps 722 mmHg 93%
    22:00 -2°C° 0 mm 2 mps 722 mmHg 92%
    23:00 -2°C° 0.1 mm 2 mps 722 mmHg 92%
    Show more